Location: Ashtead
(51.3000°N, 0.3000°W)
Time: 05:24:50
(UTC+00:00)

Thor Agena Rocket - Pass Details

Date: 26 September 2023
Orbit: 757 x 806 km, 99.0° (Epoch: 29 November)

Event Time Altitude Azimuth Distance (km) Brightness Sun altitude
Rises 04:09:41 0° 10° (N) 3,306 7.2 -16.7°
Reaches altitude 10° 04:12:12 10° 0° (N) 2,379 6.3 -16.3°
Maximum altitude 04:16:49 32° 299° (WNW) 1,348 4.4 -15.6°
Enters shadow 04:18:58 24° 259° (W) 1,630 4.6 -15.3°
